Location: Jaite
(41.2884°N, 81.5737°W)
Time: 06:27:43
(UTC+00:00)

Cosmos 1943 Rocket - Pass Details

Date: 15 November 2025
Orbit: 812 x 841 km, 71.0° (Epoch: 04 December)

Event Time Altitude Azimuth Distance (km) Brightness Sun altitude
Exits shadow 10:28:01 17° 220° (SW) 1,969 3.8 -20.1°
Drops below altitude 10° 10:29:36 10° 206° (SSW) 2,392 4.4 -19.8°
Sets 10:32:25 0° 193° (SSW) 3,318 5.3 -19.2°
